Home > Weather > Maribor > Past weeks

Flag for Slovenia Past Weather in Maribor, Slovenia — Yesterday and Last 2 Weeks

Now
76 °F

Scattered clouds.


Feels Like: 78 °F
Forecast: 57 / 82 °F
Wind: 3 mph from Northeast

Location: Maribor / Slivnica

Current Time: Jun 28, 2016 at 1:43:30 PM

Latest Report: Jun 28, 2016 at 1:00 PM


Visibility: 25 mi

Pressure: 30.03 "Hg

Humidity: 48%

Dew Point: 54 °F

Location of MariborLocation

Past Weather in Maribor — Graph

°F

Maribor Temperature Yesterday

Maximum temperature yesterday: 70 °F (at 7:00 AM)
Minimum temperature yesterday: 60 °F (at 11:00 PM)
Average temperature yesterday: 66 °F

High & Low Weather Summary for the Past Weeks

 TemperatureHumidityPressure
High90 °F (Jun 24, 6:00 PM)96% (Jun 21, 3:00 AM)30.26 "Hg (Jun 21, 3:00 AM)
Low51 °F (Jun 28, 5:00 AM)33% (Jun 17, 2:00 PM)29.54 "Hg (Jun 14, 5:00 PM)
Average69 °F72%29.94 "Hg
* Reported Jun 13 12:00 PM — Jun 28 12:00 PM, Maribor, Weather by CustomWeather, © 2016

Note: Actual official high and low records may vary slightly from our data, if they occured in-between our weather recording intervals... More about our weather records

Advertising

Maribor Weather History for the Previous 24 Hours

Scroll right to see more
 ConditionsComfort  
Time TempWeatherWind HumidityBarometerVisibility
12:00 PM
Tue, Jun 28
76 °FScattered clouds.5 mph43%30.05 "Hg25 mi
11:00 AM76 °FPassing clouds.2 mph50%30.04 "Hg25 mi
10:00 AM72 °FPassing clouds.2 mph57%30.05 "Hg25 mi
9:00 AM67 °FPassing clouds.1 mph68%30.06 "Hg25 mi
8:00 AM62 °FPassing clouds.1 mph81%30.08 "Hg25 mi
7:00 AM57 °FSunny.No wind87%30.09 "Hg25 mi
6:00 AM54 °FPassing clouds.1 mph95%30.09 "Hg12 mi
5:00 AM51 °FFog.1 mph95%30.09 "Hg6 mi
4:00 AM56 °FCool.1 mph92%30.08 "Hg19 mi
3:00 AM54 °FCool.1 mph94%30.08 "Hg7 mi
2:00 AM55 °FCool.1 mph92%30.09 "Hg15 mi
1:00 AM56 °FCool.2 mph93%30.10 "Hg19 mi
12:00 AM59 °FCool.1 mph91%30.09 "Hg25 mi
11:00 PM
Mon, Jun 27
60 °FCool.1 mph90%30.08 "Hg28 mi
10:00 PM61 °FPassing clouds.1 mph89%30.07 "Hg19 mi
9:00 PM66 °FPassing clouds.No wind77%30.05 "Hg19 mi
8:00 PM67 °FPartly sunny.2 mph70%30.03 "Hg19 mi
7:00 PM69 °FPartly sunny.3 mph68%30.02 "Hg19 mi
6:00 PM70 °FPartly sunny.3 mph70%30.01 "Hg19 mi
5:00 PM69 °FOvercast.2 mph73%30.02 "Hg19 mi
4:00 PM68 °FOvercast.2 mph71%30.03 "Hg19 mi
3:00 PM66 °FSprinkles. Overcast.5 mph75%30.03 "Hg19 mi
2:00 PM65 °FOvercast.5 mph75%30.03 "Hg19 mi
1:00 PM64 °FOvercast.6 mph74%30.04 "Hg25 mi
Weather by CustomWeather, © 2016

See weather overviewHow to use our weather pages